Location: Zapote
(9.9191°N, 84.0597°W)
Time: 03:49:15
(UTC-06:00)

N. Korean satellite - Pass Details

Date: 26 January 2021
Orbit: 451 x 503 km, 97.2° (Epoch: 27 February)

Event Time Altitude Azimuth Distance (km) Brightness Sun altitude
Rises 04:43:03 0° 11° (N) 2,451 10.1 -18.6°
Reaches altitude 10° 04:45:05 10° 11° (NNE) 1,577 9.1 -18.1°
Maximum altitude 04:48:27 88° 96° (E) 454 6.3 -17.3°
Drops below altitude 10° 04:51:50 10° 190° (S) 1,577 9.2 -16.5°
Sets 04:53:51 0° 191° (S) 2,451 10.2 -16.1°
